Hourly Data Report for June 01, 2017

ATIKOKAN (AUT)
ONTARIO

48°45'40.000" N
91°37'41.000" W
389.30 m
6020LPQ
71747
WCH

Download Data

Hourly Data (June 2017)
Hourly Data Report for June 1, 2017
TIME
LST
Temp Definition
°C
Dew Point Definition
°C
Rel Hum Definition
%
Precip. Amount Definition
mm

Wind Dir Definition
10's deg

Wind Spd Definition
km/h
Visibility Definition
km
Stn Press Definition
kPa
Hmdx Definition


Wind Chill Definition


Weather Definition


00:00 4.3 3.5 95 0.0   0   96.93     LegendNANA
01:00 3.5 2.8 95 0.0   0   96.90     LegendNANA
02:00 3.0 2.4 96 0.0   0   96.90     LegendNANA
03:00 3.0 2.5 97 0.0   0   96.92     LegendNANA
04:00 3.6 3.1 97 0.0   0   96.91     LegendNANA
05:00 4.2 3.6 96 0.0 23 1   96.94     LegendNANA
06:00 7.8 6.1 89 0.0 21 2   97.01     LegendNANA
07:00 10.8 5.3 69 0.0 30 3   97.08     LegendNANA
08:00 14.2 5.6 56 0.0 31 7   97.08     LegendNANA
09:00 16.7 5.3 47 0.0 28 4   97.06     LegendNANA
10:00 18.7 5.6 42 0.0 30 7   97.04     LegendNANA
11:00 19.6 3.8 35 0.0 35 6   97.01     LegendNANA
12:00 21.5 4.1 32 0.0 32 13   96.98     LegendNANA
13:00 23.1 5.4 32 0.0 32 7   96.92     LegendNANA
14:00 23.1 3.4 28 0.0 30 12   96.90     LegendNANA
15:00 22.1 4.1 31 0.0 35 6   96.89     LegendNANA
16:00 22.7 4.2 30 0.0 35 6   96.86     LegendNANA
17:00 23.2 5.2 31 0.0 1 2   96.83     LegendNANA
18:00 23.9 4.1 28 0.0 2 4   96.81     LegendNANA
19:00 21.9 4.5 32 0.0 32 3   96.82     LegendNANA
20:00 15.3 7.0 58 0.0   0   96.82     LegendNANA
21:00 12.0 8.5 79 0.0 0 1   96.88     LegendNANA
22:00 10.9 8.2 83 0.0 0 1   96.91     LegendNANA
23:00 9.7 7.8 88 0.0   0   96.92     LegendNANA

Notes on Data Quality.

Legend

  • E = Estimated
  • M = Missing
  • NA = Not Available*
  • [empty] = Indicates an unobserved value
Date modified: